EW6618 Weather Reports


Display with metric or nautical units.
time (UTC)temp
F
wind
direction
speed
MPH
gust
MPH
rain 1hr
in
rain 24hr
in
rain mn
in
humidity
%
barometer
mb
20260508234026 64 353 8.0 13.0 0.00 0.00 0.00 85 1014.1
20260508233015 64 293 7.0 11.0 0.00 0.00 0.00 86 1014.1
20260508232036 65 288 7.0 10.0 0.00 0.00 0.00 84 1014.1
20260508231048 65 295 7.0 11.0 0.00 0.00 0.00 84 1014.2
20260508230018 65 281 7.0 11.0 0.00 0.00 0.00 83 1014.2
20260508225019 65 252 6.0 10.0 0.00 0.00 0.00 82 1014.3
20260508224023 66 303 6.0 10.0 0.00 0.00 0.00 82 1014.5
20260508221904 66 300 8.0 12.0 0.00 0.00 0.00 81 1014.6
20260508214652 68 258 7.0 11.0 0.00 0.00 0.00 78 1015.2
20260508213716 68 255 6.0 11.0 0.00 0.00 0.00 80 1015.4
20260508211541 68 258 7.0 11.0 0.00 0.00 0.00 78 1015.5
20260508210531 68 251 7.0 10.0 0.00 0.00 0.00 77 1015.5
20260508205546 68 235 7.0 10.0 0.00 0.00 0.00 77 1015.8
20260508204556 68 220 6.0 9.0 0.00 0.00 0.00 78 1015.9
20260508203609 68 347 6.0 9.0 0.00 0.00 0.00 78 1015.9
20260508202617 68 227 6.0 9.0 0.00 0.00 0.00 78 1016.0
20260508201635 67 264 6.0 9.0 0.00 0.00 0.00 78 1016.1
20260508195459 67 245 5.0 9.0 0.00 0.00 0.00 81 1016.3
20260508194510 67 294 5.0 9.0 0.00 0.00 0.00 81 1016.3
20260508192332 66 224 5.0 9.0 0.00 0.00 0.00 80 1016.4
20260508191352 66 238 5.0 9.0 0.00 0.00 0.00 81 1016.5
20260508190345 66 255 4.0 9.0 0.00 0.00 0.00 83 1016.7
20260508184251 65 221 4.0 7.0 0.00 0.00 0.00 84 1016.9
20260508183236 65 52 4.0 7.0 0.00 0.00 0.00 84 1016.8
20260508182218 65 205 4.0 8.0 0.00 0.00 0.00 84 1016.8
20260508181236 65 271 5.0 8.0 0.00 0.00 0.00 84 1016.8
20260508180202 65 248 5.0 8.0 0.00 0.00 0.00 84 1016.9
20260508175227 65 229 4.0 8.0 0.00 0.00 0.00 83 1016.9
20260508174222 65 27 3.0 6.0 0.00 0.00 0.00 83 1016.9
20260508173157 65 139 1.0 3.0 0.00 0.00 0.00 83 1017.0
20260508165844 64 110 0.0 0.0 0.00 0.00 0.00 84 1016.9
20260508164815 64 97 0.0 3.0 0.00 0.00 0.00 85 1016.8
20260508163743 63 112 0.0 3.0 0.00 0.00 0.00 85 1016.9
20260508162749 63 120 0.0 0.0 0.00 0.00 0.00 86 1016.8
20260508161757 63 87 0.0 2.0 0.00 0.00 0.00 86 1016.8
20260508160740 63 130 1.0 3.0 0.00 0.00 0.00 86 1016.9
20260508155706 62 53 1.0 5.0 0.00 0.00 0.00 87 1016.8
20260508154701 62 97 1.0 4.0 0.00 0.00 0.00 87 1016.7
20260508151438 62 46 1.0 5.0 0.00 0.00 0.00 88 1016.9
20260508150440 62 73 1.0 6.0 0.00 0.00 0.00 89 1016.8
20260508145409 61 78 1.0 6.0 0.00 0.00 0.00 89 1016.8
20260508144338 61 99 0.0 2.0 0.00 0.00 0.00 90 1016.7
20260508143357 61 101 1.0 4.0 0.00 0.00 0.00 90 1016.8
20260508142332 61 90 0.0 3.0 0.00 0.00 0.00 90 1016.9
20260508141325 61 103 0.0 3.0 0.00 0.00 0.00 90 1016.8
20260508135240 61 127 1.0 4.0 0.00 0.00 0.00 89 1016.5
20260508134255 62 91 1.0 3.0 0.00 0.00 0.00 89 1016.6
20260508130944 61 85 0.0 0.0 0.00 0.00 0.00 88 1016.3
20260508125959 61 85 0.0 0.0 0.00 0.00 0.00 88 1016.4
20260508125018 61 103 0.0 0.0 0.00 0.00 0.00 88 1016.3
20260508124021 61 103 0.0 0.0 0.00 0.00 0.00 88 1016.2
20260508121908 61 103 0.0 0.0 0.00 0.00 0.00 88 1015.9
20260508120909 61 114 0.0 0.0 0.00 0.00 0.00 88 1015.9
20260508115933 61 90 0.0 0.0 0.00 0.00 0.00 88 1015.8
20260508114904 61 95 0.0 0.0 0.00 0.00 0.00 88 1015.8
20260508113852 61 128 0.0 3.0 0.00 0.00 0.00 88 1015.8
20260508112902 61 100 1.0 4.0 0.00 0.00 0.00 88 1015.6
20260508111927 61 103 1.0 4.0 0.00 0.00 0.00 88 1015.6
20260508110920 61 105 1.0 4.0 0.00 0.00 0.00 89 1015.6
20260508105905 61 90 1.0 4.0 0.00 0.00 0.00 89 1015.6
20260508104842 61 108 1.0 3.0 0.00 0.00 0.00 90 1015.6
20260508103835 61 93 0.0 3.0 0.00 0.00 0.00 91 1015.7
20260508102834 61 107 0.0 0.0 0.00 0.00 0.00 91 1015.6
20260508101840 60 101 0.0 0.0 0.00 0.00 0.00 91 1015.6
20260508100900 60 101 0.0 0.0 0.00 0.00 0.00 92 1015.7
20260508095850 60 101 0.0 0.0 0.00 0.00 0.00 91 1015.5
20260508094822 60 184 0.0 0.0 0.00 0.00 0.00 92 1015.8
20260508093842 60 184 0.0 0.0 0.00 0.00 0.00 92 1015.9
20260508092854 60 223 0.0 0.0 0.00 0.00 0.00 92 1015.9
20260508090651 60 240 0.0 0.0 0.00 0.00 0.00 92 1016.1
20260508085618 60 248 0.0 0.0 0.00 0.00 0.00 92 1016.2
20260508084632 60 263 0.0 2.0 0.00 0.00 0.00 92 1016.1
20260508083653 60 200 0.0 1.0 0.00 0.00 0.00 92 1016.1
20260508082641 60 248 0.0 1.0 0.00 0.00 0.00 92 1016.2
20260508081651 60 216 0.0 3.0 0.00 0.00 0.00 92 1016.3
20260508080642 60 224 1.0 3.0 0.00 0.00 0.00 92 1016.5
20260508075630 60 236 1.0 3.0 0.00 0.00 0.00 92 1016.6
20260508074624 60 110 1.0 3.0 0.00 0.00 0.00 92 1016.6
20260508073617 60 238 0.0 2.0 0.00 0.00 0.00 92 1016.6
20260508072546 60 163 0.0 3.0 0.00 0.00 0.00 92 1016.6
20260508071542 60 248 1.0 4.0 0.00 0.00 0.00 92 1016.6
20260508070550 60 208 1.0 4.0 0.00 0.00 0.00 92 1016.5
20260508065551 60 200 1.0 4.0 0.00 0.00 0.00 92 1016.5
20260508064528 60 96 1.0 4.0 0.00 0.00 0.00 92 1016.4
20260508063501 60 76 1.0 4.0 0.00 0.00 0.00 91 1016.3
20260508062458 60 141 1.0 5.0 0.00 0.00 0.00 91 1016.3
20260508061438 60 217 2.0 5.0 0.00 0.00 0.00 91 1016.3
20260508055337 60 30 1.0 5.0 0.00 0.00 0.00 91 1016.3
20260508054354 61 218 2.0 6.0 0.00 0.00 0.00 91 1016.3
20260508053403 60 102 2.0 6.0 0.00 0.00 0.00 91 1016.5
20260508052339 60 120 1.0 4.0 0.00 0.00 0.00 91 1016.4
20260508051336 60 235 2.0 4.0 0.00 0.00 0.00 91 1016.4
20260508050334 61 143 2.0 8.0 0.00 0.00 0.00 91 1016.3
20260508045327 61 71 3.0 8.0 0.00 0.00 0.00 91 1016.2
20260508044254 61 119 1.0 5.0 0.00 0.00 0.00 92 1016.2
20260508043224 61 182 1.0 3.0 0.00 0.00 0.00 92 1016.0
20260508042215 61 223 1.0 4.0 0.00 0.00 0.00 91 1015.9
20260508041208 60 151 1.0 4.0 0.00 0.00 0.00 91 1015.6
20260508040204 60 250 2.0 4.0 0.00 0.00 0.00 91 1015.5
20260508035201 60 242 3.0 6.0 0.00 0.00 0.00 91 1015.3
20260508032950 60 307 3.0 7.0 0.00 0.00 0.00 90 1015.0
20260508030831 61 319 3.0 7.0 0.00 0.00 0.00 89 1014.8
20260508025837 61 282 4.0 7.0 0.00 0.00 0.00 88 1014.8
20260508024816 62 253 4.0 9.0 0.00 0.00 0.00 87 1014.7
20260508023800 62 264 5.0 9.0 0.00 0.00 0.00 86 1014.5
20260508022727 63 290 5.0 8.0 0.00 0.00 0.00 85 1014.5
20260508021718 64 72 5.0 8.0 0.00 0.00 0.00 84 1014.4
20260508020740 64 246 6.0 9.0 0.00 0.00 0.00 84 1014.4
20260508015705 64 197 6.0 10.0 0.00 0.00 0.00 83 1014.3
20260508013600 65 294 6.0 9.0 0.00 0.00 0.00 82 1014.3
20260508012549 65 225 6.0 9.0 0.00 0.00 0.00 82 1014.2
20260508005329 65 283 6.0 9.0 0.00 0.00 0.00 80 1014.3
20260508004311 66 257 6.0 9.0 0.00 0.00 0.00 79 1014.3
20260508003304 66 253 6.0 10.0 0.00 0.00 0.00 80 1014.4
20260508002307 66 256 7.0 10.0 0.00 0.00 0.00 80 1014.3
20260508001303 66 231 6.0 9.0 0.00 0.00 0.00 81 1014.4
20260508000257 66 163 6.0 9.0 0.00 0.00 0.00 82 1014.3
20260507234145 66 306 6.0 10.0 0.00 0.00 0.00 80 1014.5